Location: Cartignies
(50.0929°N, 3.8447°E)
Time: 14:07:35
(UTC+00:00)

SL-16 R/B - Pass Details

Date: 12 January 2026
Orbit: 841 x 846 km, 71.0° (Epoch: 16 February)

Event Time Altitude Azimuth Distance (km) Brightness Sun altitude
Rises 17:46:53 0° 226° (SW) 3,392 6.5 -15.4°
Reaches altitude 10° 17:49:25 10° 232° (SW) 2,460 5.7 -15.8°
Maximum altitude 17:54:52 49° 307° (NW) 1,085 3.0 -16.7°
Drops below altitude 10° 18:00:22 10° 22° (NNE) 2,472 4.3 -17.5°
Enters shadow 18:00:24 10° 22° (NNE) 2,482 4.3 -17.5°
